Columbus, OH

9:33 AM EDT on May 21, 2018 (GMT -0400)
Port Columbus International

Weather History for KCMH - May, 2014

Change the Weather History Date:

Sunday, May 11, 2014

  Actual Average Record
Temperature  
Mean Temperature 69 °F 61 °F  
Max Temperature 82 °F 72 °F 92 °F (1896)
Min Temperature 56 °F 51 °F 33 °F (1966)
Degree Days  
Heating Degree Days 0 6  
Month to date heating degree days 51 72  
Since 1 July heating degree days 5572 5154  
Cooling Degree Days 4 2  
Month to date cooling degree days 31 12  
Year to date cooling degree days 39 24  
Growing Degree Days 18 (Base 50)    
Moisture  
Dew Point 58 °F    
Average Humidity 70    
Maximum Humidity 93    
Minimum Humidity 47    
Precipitation  
Precipitation 0.17 in 0.13 in 1.74 in (1933)
Month to date precipitation 1.26 1.37  
Year to date precipitation 14.11 12.77  
Snow  
Snow 0.00 in 0.00 in 0.00 in ()
Month to date snowfall 0.0 0.0  
Since 1 July snowfall 56.4 26.7  
Snow Depth 0.00 in    
Sea Level Pressure  
Sea Level Pressure 30.06 in    
Wind  
Wind Speed 5 mph (SSE)    
Max Wind Speed 23 mph    
Max Gust Speed 26 mph    
Visibility 5 miles    
Events Fog , Rain , Thunderstorm    
T = Trace of Precipitation, MM = Missing Value Source: NWS Daily Summary

Daily Weather History Graph

Daily Weather History Graph

Search for Another Location

Airport or City:

Astronomy

May. 11, 2014 Rise Set
Actual Time 6:20 AM EDT 8:36 PM EDT
Civil Twilight 5:49 AM EDT 9:06 PM EDT
Nautical Twilight 5:12 AM EDT 9:43 PM EDT
Astronomical Twilight 4:31 AM EDT 10:25 PM EDT
Moon 5:31 PM EDT (5/11) 4:24 AM EDT (5/11)
Length of Visible Light 15h 16m
Length of Day
14h 16m
Waxing Gibbous, 89% of the Moon is Illuminated
May 11
Waxing Gibbous
May 14
Full
May 21
Last Quarter
May 28
New
Jun 5
First Quarter

Hourly Weather History & Observations

Time (EDT) Temp. Heat Index Dew Point Humidity Pressure Visibility Wind Dir Wind Speed Gust Speed Precip Events Conditions
12:32 AM 57.2 °F - 53.6 °F 88% 30.04 in 4.0 mi Calm Calm - N/A   Partly Cloudy
12:51 AM 57.2 °F - 55.4 °F 94% 30.04 in 5.0 mi Calm Calm - N/A   Scattered Clouds
1:09 AM 55.4 °F - 55.4 °F 100% 30.04 in 4.0 mi Calm Calm - N/A   Mostly Cloudy
1:32 AM 55.4 °F - 55.4 °F 100% 30.04 in 1.0 mi South 3.5 mph - N/A   Overcast
1:42 AM 57.2 °F - 55.4 °F 94% 30.04 in 0.5 mi SSW 5.8 mph - N/A Fog Fog
1:51 AM 57.2 °F - 55.4 °F 94% 30.04 in 0.5 mi SSW 6.9 mph - N/A Fog Fog
2:13 AM 57.2 °F - 55.4 °F 94% 30.05 in 0.2 mi SSW 4.6 mph - N/A Fog Fog
2:51 AM 57.0 °F - 55.9 °F 96% 30.05 in 0.2 mi South 5.8 mph - N/A Fog Fog
3:51 AM 57.0 °F - 55.0 °F 93% 30.05 in 0.2 mi South 3.5 mph - N/A Fog Fog
4:51 AM 57.2 °F - 55.4 °F 94% 30.06 in 0.2 mi Calm Calm - N/A Fog Fog
5:51 AM 57.0 °F - 55.0 °F 93% 30.07 in 0.2 mi Calm Calm - N/A Fog Fog
6:51 AM 57.0 °F - 55.0 °F 93% 30.09 in 0.2 mi ESE 3.5 mph - N/A Fog Fog
7:42 AM 57.2 °F - 55.4 °F 94% 30.11 in 0.1 mi SE 4.6 mph - N/A Fog Fog
7:51 AM 57.2 °F - 55.4 °F 94% 30.11 in 0.1 mi SE 4.6 mph - N/A Fog Fog
8:51 AM 57.9 °F - 55.9 °F 93% 30.12 in 0.2 mi Calm Calm - N/A Fog Fog
9:17 AM 57.2 °F - 55.4 °F 94% 30.13 in 0.5 mi SSE 3.5 mph - N/A Fog Fog
9:51 AM 60.1 °F - 57.0 °F 90% 30.13 in 0.5 mi South 5.8 mph - N/A   Overcast
10:00 AM 60.8 °F - 57.2 °F 88% 30.13 in 3.0 mi South 3.5 mph - N/A   Overcast
10:51 AM 63.0 °F - 57.9 °F 84% 30.14 in 6.0 mi South 4.6 mph - N/A   Haze
11:44 AM 66.2 °F - 59.0 °F 78% 30.11 in 6.0 mi SE 9.2 mph - N/A   Haze
11:51 AM 68.0 °F - 59.0 °F 73% 30.09 in 7.0 mi ESE 8.1 mph - N/A   Mostly Cloudy
12:51 PM 72.0 °F - 62.1 °F 71% 30.09 in 8.0 mi ESE 8.1 mph - N/A   Mostly Cloudy
1:51 PM 75.9 °F - 60.1 °F 58% 30.08 in 10.0 mi Variable 4.6 mph - N/A   Overcast
2:51 PM 78.1 °F - 60.1 °F 54% 30.06 in 10.0 mi SSE 9.2 mph - N/A   Overcast
3:51 PM 80.1 °F 80.9 °F 60.1 °F 50% 30.04 in 10.0 mi SSW 11.5 mph 17.3 mph N/A   Overcast
4:51 PM 79.0 °F - 59.0 °F 50% 30.02 in 10.0 mi South 10.4 mph - N/A   Mostly Cloudy
5:51 PM 82.0 °F 82.7 °F 61.0 °F 49% 30.01 in 10.0 mi South 8.1 mph 16.1 mph N/A   Mostly Cloudy
6:51 PM 80.1 °F 80.9 °F 60.1 °F 50% 30.01 in 10.0 mi SSE 8.1 mph - N/A   Mostly Cloudy
7:44 PM 77.0 °F - 62.6 °F 61% 30.02 in 6.0 mi South 3.5 mph - 0.00 in Rain , Thunderstorm Light Thunderstorms and Rain
7:51 PM 77.0 °F - 62.1 °F 60% 30.01 in 6.0 mi Calm Calm - 0.00 in Rain , Thunderstorm Light Thunderstorms and Rain
8:05 PM 71.6 °F - 64.4 °F 78% 30.03 in 9.0 mi NE 6.9 mph - 0.01 in Rain , Thunderstorm Light Thunderstorms and Rain
8:31 PM 69.8 °F - 62.6 °F 78% 30.04 in 6.0 mi WNW 19.6 mph - 0.03 in Rain , Thunderstorm Light Thunderstorms and Rain
8:51 PM 68.0 °F - 62.1 °F 81% 30.04 in 4.0 mi West 6.9 mph - 0.13 in Rain , Thunderstorm Light Thunderstorms and Rain
9:02 PM 68.0 °F - 62.6 °F 83% 30.05 in 6.0 mi West 3.5 mph - 0.02 in Rain , Thunderstorm Light Thunderstorms and Rain
9:40 PM 66.2 °F - 60.8 °F 83% 30.06 in 7.0 mi South 5.8 mph - 0.03 in   Mostly Cloudy
9:51 PM 66.9 °F - 61.0 °F 81% 30.05 in 7.0 mi East 5.8 mph - 0.03 in   Mostly Cloudy
10:51 PM 66.9 °F - 62.1 °F 84% 30.07 in 7.0 mi Calm Calm - 0.00 in Rain , Thunderstorm Light Thunderstorms and Rain
11:22 PM 69.8 °F - 62.6 °F 78% 30.07 in 10.0 mi North 4.6 mph - 0.01 in   Mostly Cloudy
11:51 PM 66.9 °F - 63.0 °F 87% 30.07 in 7.0 mi ESE 4.6 mph - 0.01 in   Scattered Clouds